Location: Hurecourt
(47.9030°N, 6.0653°E)
Time: 10:46:12
(UTC+00:00)

Tsikada Rocket - Pass Details

Date: 14 July 2020
Orbit: 959 x 1008 km, 82.9° (Epoch: 06 August)

Event Time Altitude Azimuth Distance (km) Brightness Sun altitude
Rises 01:30:04 0° 351° (N) 3,745 8.0 -16.3°
Reaches altitude 10° 01:32:37 10° 352° (N) 2,794 7.2 -16.1°
Maximum altitude 01:39:04 83° 81° (E) 1,023 4.1 -15.6°
Enters shadow 01:45:05 12° 169° (S) 2,629 5.8 -15.2°
